Terminal Aerodrome Forecast
Issued by NWS

Home | Current Version | Previous Version | Text Only | Print | Product List | Glossary On
Versions: 1 2 3 4 5 6 7 8 9 10 11
000
FTUS42 KTAE 121133
TAFVLD
TAF
KVLD 121133Z 1212/1312 22004KT P6SM SKC
     FM121600 30008G16KT P6SM SCT050
     FM130000 31008KT P6SM SKC=

USA.gov is the U.S. government's official web portal to all federal, state and local government web resources and services.